[[{"header":{"parameterUnit":"m.s-1","parameterCategory":1,"la1":30.2991,"la2":30.254,"lo1":-89.0895,"lo2":-89.0444,"dy":0.0017,"dx":0.0017,"nx":28,"ny":28,"refTime":"2025-06-21T03:00:00:Z","depth":0,"parameterNumber":2,"parameterNumberName":"U-component_of_WINDS"},"data":[0,0,0,0,0,0,0,0,0,0,0,0,0,0,0,0,0,0,0,0,0,0,0,0,0,0,0,0,0,0,0,0,0,0,0,0,0,0,0,0,0,0,0,0,0,0,0,0,0,0,0,0,0,0,0,0,0,0,0.5615,0.5615,0,0.5619,0.5619,0.5619,0.5615,0.5615,0.5614,0.5614,0.5617,0.5617,0.5618,0,0,0,0,0,0,0,0,0,0,0,0,0,0.5601,0.5601,0.5615,0.5615,0.5615,0.5619,0.5619,0.5619,0.5615,0.5615,0.5614,0.5614,0.5617,0.5617,0.5618,0,0,0,0,0,0,0,0,0,0,0,0,0,0.5606,0.5602,0.5615,0.5613,0.5613,0.5619,0.5619,0.5619,0.5615,0.5615,0.5614,0.5614,0.5617,0.5617,0.5618,0.5625,0,0,0.5619,0.5619,0,0,0,0,0,0,0,0,0.5606,0.5607,0.5614,0.5614,0.5613,0.5616,0.5615,0.5621,0.5615,0.5614,0.5614,0.5614,0.5617,0.5617,0.5619,0.5625,0.5625,0.5619,0.5619,0.5619,0.5619,0,0,0,0,0,0,0,0.5606,0.5607,0.5617,0.5614,0.5614,0.5612,0.5612,0.5616,0.5617,0.5614,0.5614,0.5615,0.5617,0.5618,0.5619,0.5625,0.5619,0.5619,0.5619,0.5619,0.5635,0.5636,0,0,0,0,0,0,0.5606,0.5606,0.5616,0.5617,0.5609,0.5612,0.5613,0.5615,0.5617,0.5617,0.5615,0.5614,0.5618,0.5618,0.5619,0.5626,0.5619,0.5619,0.562,0.5635,0.5635,0.5636,0,0,0,0,0,0,0.5605,0.5607,0.5616,0.5611,0.5613,0.5613,0.5616,0.5616,0.5617,0.5617,0.5617,0.5616,0.5618,0.5618,0.5623,0.5626,0.562,0.562,0.5635,0.5635,0.5636,0.5641,0,0,0,0,0,0,0.5605,0.5607,0.561,0.5612,0.5613,0.5621,0.5616,0.5616,0.5618,0.5617,0.5619,0.5618,0.5617,0.5622,0.5623,0.5626,0.562,0.5635,0.5635,0.5635,0.5641,0.5641,0.5642,0,0,0,0,0,0.5605,0.5612,0.561,0.5612,0.5617,0.5621,0.5622,0.5621,0.5618,0.5621,0.5621,0.5618,0.5625,0.5623,0.5624,0.5627,0.5634,0.5635,0.5635,0.564,0.5641,0.5642,0,0,0,0,0,0,0.5611,0.5612,0.561,0.5618,0.562,0.5621,0.5624,0.5623,0.5625,0.5624,0.5622,0.5623,0.5627,0.5628,0.5625,0.5633,0.5629,0.563,0.5633,0.5634,0.5635,0.5634,0.5621,0,0,0,0,0,0.5613,0.5617,0.5617,0.5624,0.5625,0.5624,0.5626,0.5625,0.5627,0.5627,0.5627,0.5628,0.5631,0.5632,0.5634,0.564,0.564,0.5643,0.5644,0.5644,0.5645,0.5647,0.5648,0.5637,0.5637,0.5637,0,0,0.5617,0.5619,0.5621,0.5625,0.5626,0.563,0.5625,0.5629,0.5631,0.5628,0.5632,0.5632,0.5633,0.5638,0.564,0.5638,0.5648,0.5645,0.5646,0.5646,0.5647,0.5648,0.5649,0.5638,0.5637,0.5637,0,0,0.5627,0.5629,0.5634,0.5635,0.5637,0.5636,0.5637,0.5638,0.5638,0.5642,0.5639,0.5641,0.5646,0.5646,0.5646,0.5654,0.5652,0.5655,0.566,0.5661,0.5662,0.5663,0.5665,0.5665,0.5656,0.5656,0.5656,0,0.5633,0.5638,0.5637,0.5641,0.5642,0.5639,0.5643,0.5644,0.5646,0.5646,0.5644,0.5649,0.5649,0.5653,0.5655,0.5656,0.5657,0.5655,0.5662,0.5663,0.5663,0.5665,0.5666,0.5656,0.5656,0.5656,0.5656,0,0.5644,0.5648,0.5651,0.5653,0.5655,0.5659,0.5657,0.5659,0.5657,0.5657,0.566,0.566,0.5662,0.5663,0.5661,0.5666,0.5665,0.5663,0.5659,0.5665,0.5666,0.5667,0.5656,0.5656,0.5656,0.5656,0,0,0.5659,0.5659,0.566,0.566,0.5661,0.5663,0.5666,0.5668,0.5669,0.567,0.5672,0.5675,0.5672,0.5673,0.5671,0.5673,0.5677,0.567,0.567,0.567,0.5681,0.5683,0.5684,0.5676,0.5676,0.5676,0.5681,0,0.5668,0.5674,0.5672,0.5677,0.568,0.5676,0.5679,0.5679,0.5678,0.5679,0.5678,0.5679,0.5676,0.5677,0.5678,0.5677,0.5679,0.5676,0.5677,0.5677,0.5676,0.5685,0.5687,0.5692,0.5682,0.5682,0.5682,0,0.5679,0.568,0.5686,0.5685,0.5686,0.5688,0.5689,0.569,0.569,0.5689,0.5689,0.5687,0.5688,0.5685,0.5687,0.5685,0.5684,0.5684,0.5684,0.5683,0.5679,0.5684,0.5693,0.5694,0.5683,0.5683,0.5683,0,0.5688,0.5691,0.5694,0.5695,0.5694,0.5695,0.5695,0.5694,0.5695,0.5695,0.5695,0.5695,0.5695,0.5695,0.5692,0.569,0.5694,0.569,0.5692,0.5692,0.5693,0.5693,0.5702,0.5694,0.5694,0.5694,0.5694,0,0.5698,0.5701,0.5698,0.57,0.5703,0.5701,0.5704,0.5703,0.5702,0.5703,0.57,0.5701,0.5697,0.5698,0.5696,0.5697,0.5697,0.5696,0.5695,0.5696,0.5696,0.5695,0.5695,0.5694,0.5694,0.5694,0.5694,0,0.5708,0.5706,0.571,0.5708,0.5708,0.571,0.5708,0.571,0.5708,0.5709,0.5709,0.5707,0.5707,0.5704,0.5704,0.5702,0.5704,0.5703,0.5704,0.5704,0.5706,0.5705,0.5714,0.5715,0.5707,0.5707,0.5707,0,0.5714,0.5717,0.5715,0.5716,0.5715,0.5717,0.5717,0.5714,0.5714,0.5713,0.5714,0.5714,0.5713,0.5714,0.5711,0.571,0.5709,0.5712,0.5709,0.5709,0.5708,0.5708,0.5707,0.5713,0.5713,0.5713,0.5713,0,0.5725,0.5724,0.5725,0.5724,0.5725,0.5725,0.5724,0.5725,0.5721,0.5721,0.5721,0.5721,0.572,0.572,0.5718,0.5717,0.5714,0.5714,0.5714,0.5715,0.5715,0.5714,0.5705,0.5714,0.5714,0.5714,0.5714,0.5713,0.5733,0.5734,0.5733,0.5734,0.5733,0.5732,0.5733,0.5731,0.5731,0.573,0.5728,0.5728,0.5726,0.5724,0.5723,0.5723,0.5721,0.5722,0.5722,0.5722,0.5722,0.5716,0.5722,0.5722,0.5722,0.5722,0.5722,0,0.5743,0.5742,0.5742,0.5741,0.5741,0.5739,0.5737,0.5737,0.5738,0.5736,0.5736,0.5735,0.5734,0.5731,0.573,0.573,0.5728,0.573,0.5729,0.5729,0.5724,0.5723,0.5731,0.5731,0.5731,0.5731,0.5731,0.5731,0.5748,0.575,0.5748,0.5749,0.5748,0.5748,0.5747,0.5746,0.5745,0.5744,0.5744,0.5742,0.5739,0.5738,0.5736,0.5735,0.5735,0.5736,0.5735,0.573,0.5729,0.5729,0.5728,0.5736,0.5736,0.574,0.574,0.574]},{"header":{"parameterUnit":"m.s-1","parameterCategory":1,"la1":30.2991,"la2":30.254,"lo1":-89.0895,"lo2":-89.0444,"dy":0.0017,"dx":0.0017,"nx":28,"ny":28,"refTime":"2025-06-21T03:00:00:Z","depth":0,"parameterNumber":3,"parameterNumberName":"V-component_of_WINDS"},"data":[0,0,0,0,0,0,0,0,0,0,0,0,0,0,0,0,0,0,0,0,0,0,0,0,0,0,0,0,0,0,0,0,0,0,0,0,0,0,0,0,0,0,0,0,0,0,0,0,0,0,0,0,0,0,0,0,0,0,3.5592,3.5592,0,3.5597,3.5597,3.5597,3.5535,3.5533,3.5532,3.553,3.5535,3.5537,3.5539,0,0,0,0,0,0,0,0,0,0,0,0,0,3.5527,3.5529,3.5592,3.5592,3.5592,3.5597,3.5597,3.5597,3.5535,3.5533,3.5531,3.5529,3.5535,3.5537,3.5539,0,0,0,0,0,0,0,0,0,0,0,0,0,3.5546,3.5529,3.5592,3.5562,3.5559,3.5597,3.5597,3.5597,3.5536,3.5533,3.5531,3.5528,3.5534,3.5536,3.5539,3.5606,0,0,3.5547,3.5548,0,0,0,0,0,0,0,0,3.5545,3.5549,3.5566,3.5564,3.5561,3.5563,3.5576,3.56,3.5536,3.5545,3.553,3.5527,3.5546,3.5548,3.5554,3.5607,3.5607,3.5547,3.5549,3.555,3.5551,0,0,0,0,0,0,0,3.5544,3.5548,3.5594,3.5567,3.5563,3.5548,3.5548,3.5581,3.556,3.5544,3.5539,3.5541,3.5545,3.5552,3.5554,3.5607,3.5547,3.5549,3.5551,3.5552,3.5712,3.5715,0,0,0,0,0,0,3.5547,3.5548,3.5594,3.5594,3.5547,3.5551,3.5551,3.5565,3.5559,3.5556,3.5543,3.5538,3.5549,3.5551,3.5554,3.563,3.555,3.5552,3.5554,3.5709,3.5713,3.5715,0,0,0,0,0,0,3.5546,3.5552,3.5594,3.557,3.5574,3.5555,3.5571,3.5566,3.5574,3.5559,3.5555,3.5554,3.5547,3.555,3.5593,3.563,3.5553,3.5556,3.5706,3.571,3.5714,3.5785,0,0,0,0,0,0,3.5544,3.5552,3.5578,3.5571,3.5575,3.5633,3.5573,3.5568,3.5578,3.5572,3.5568,3.5565,3.5545,3.559,3.5596,3.5632,3.5558,3.5703,3.5708,3.5713,3.578,3.5791,3.5801,0,0,0,0,0,3.5542,3.5598,3.5579,3.5585,3.5607,3.5636,3.5638,3.5614,3.5582,3.5607,3.5597,3.5565,3.5625,3.5595,3.5601,3.5639,3.57,3.5706,3.5712,3.5775,3.5789,3.5801,0,0,0,0,0,0,3.561,3.5597,3.5576,3.5631,3.5635,3.5625,3.5656,3.563,3.5644,3.5637,3.5606,3.5606,3.5653,3.565,3.5616,3.5702,3.5657,3.5665,3.5702,3.5716,3.5726,3.5725,3.556,0,0,0,0,0,3.5631,3.5656,3.5643,3.5693,3.5696,3.5676,3.5687,3.5668,3.5671,3.5672,3.5666,3.567,3.5689,3.5702,3.572,3.5779,3.5777,3.5808,3.5819,3.5828,3.5835,3.5864,3.5877,3.5735,3.5735,3.5735,0,0,3.5676,3.5671,3.5689,3.5706,3.5707,3.5732,3.5678,3.5707,3.5725,3.5677,3.5716,3.5712,3.5714,3.5765,3.5787,3.5764,3.5873,3.5836,3.5843,3.5845,3.5871,3.5885,3.5897,3.5739,3.5739,3.5738,0,0,3.5769,3.5769,3.5809,3.5811,3.5813,3.5799,3.5809,3.5803,3.5797,3.5837,3.58,3.5821,3.5856,3.5858,3.5864,3.5957,3.5928,3.5964,3.602,3.6049,3.606,3.607,3.6101,3.6113,3.5971,3.5971,3.5971,0,3.5824,3.586,3.5834,3.5865,3.5873,3.583,3.587,3.5873,3.588,3.5887,3.5861,3.5902,3.5901,3.5951,3.5973,3.598,3.5989,3.5963,3.6061,3.607,3.6079,3.6108,3.612,3.5975,3.5974,3.5974,3.5974,0,3.5926,3.5953,3.5985,3.5992,3.6004,3.604,3.6018,3.6033,3.6013,3.6001,3.6041,3.6038,3.6052,3.6063,3.6044,3.611,3.6096,3.6066,3.6019,3.6097,3.6124,3.6135,3.5981,3.5979,3.5978,3.5977,0,0,3.6063,3.6053,3.6066,3.6067,3.6066,3.6085,3.6118,3.6132,3.6145,3.6152,3.6178,3.6208,3.6179,3.6186,3.6167,3.6193,3.6264,3.6159,3.6159,3.6177,3.6334,3.6355,3.6369,3.6245,3.6247,3.6249,3.6333,0,3.6151,3.6207,3.6183,3.6241,3.6264,3.6223,3.6252,3.6253,3.6244,3.6261,3.6251,3.6271,3.6234,3.6237,3.6261,3.625,3.6295,3.6244,3.6268,3.6269,3.6267,3.6383,3.6406,3.6486,3.6344,3.6346,3.6347,0,3.6263,3.6273,3.6333,3.6325,3.6333,3.636,3.6369,3.6387,3.6388,3.6379,3.6386,3.6361,3.6392,3.6347,3.6389,3.6355,3.6363,3.636,3.6362,3.6362,3.6312,3.6385,3.6511,3.6523,3.6364,3.6363,3.6361,0,3.6353,3.6382,3.6421,3.6424,3.6416,3.6435,3.6433,3.6431,3.6441,3.645,3.6455,3.6468,3.6475,3.6485,3.6464,3.6433,3.6508,3.6462,3.6501,3.6501,3.6517,3.6516,3.6645,3.6526,3.6526,3.6525,3.6525,0,3.6454,3.6492,3.6461,3.6485,3.6525,3.6497,3.6538,3.6532,3.653,3.6552,3.6518,3.6539,3.651,3.6527,3.6511,3.6547,3.6551,3.6544,3.6539,3.6546,3.6547,3.655,3.6543,3.6529,3.6528,3.6527,3.6527,0,3.6562,3.6543,3.6582,3.6571,3.6569,3.66,3.659,3.6611,3.6599,3.6626,3.6631,3.6612,3.6631,3.6611,3.6629,3.6618,3.6666,3.6654,3.6665,3.6661,3.67,3.6696,3.6834,3.685,3.6723,3.6724,3.6725,0,3.6626,3.6654,3.6646,3.6657,3.6657,3.6676,3.6685,3.6659,3.667,3.6672,3.6692,3.6709,3.672,3.6752,3.674,3.6753,3.6739,3.6787,3.6741,3.6747,3.6738,3.6736,3.6737,3.6796,3.6797,3.6798,3.6799,0,3.6743,3.6731,3.6745,3.6756,3.6767,3.6775,3.6779,3.6791,3.6763,3.6777,3.6795,3.6804,3.6822,3.6838,3.6847,3.6844,3.6817,3.6814,3.6823,3.683,3.6835,3.6831,3.6689,3.6811,3.681,3.6809,3.6808,3.6808,3.6829,3.6851,3.6848,3.6865,3.6865,3.687,3.6888,3.6878,3.6893,3.6905,3.6888,3.6911,3.691,3.6919,3.692,3.6937,3.6917,3.6931,3.6934,3.6938,3.6942,3.6834,3.6939,3.6939,3.6938,3.6938,3.6938,0,3.6942,3.6938,3.6953,3.696,3.6972,3.6945,3.6949,3.6961,3.6981,3.6982,3.6994,3.7014,3.7029,3.7018,3.703,3.7046,3.7034,3.705,3.7048,3.7047,3.6961,3.6951,3.706,3.706,3.706,3.706,3.706,3.706,3.7002,3.7037,3.7025,3.706,3.7055,3.7076,3.708,3.7084,3.7084,3.7109,3.7121,3.7113,3.7109,3.712,3.7133,3.7129,3.7134,3.7155,3.7146,3.7066,3.7054,3.7042,3.7032,3.7157,3.7157,3.7231,3.7232,3.7232]}]]